Regional Weather Roundup
Issued by NWS Mt. Holly, NJ

Current Version | Previous Version | Text Only | Print | Product List | Glossary Off
Versions: 1 2 3 4 5 6 7 8 9 10 11 12 13 14 15 16 17 18 19 20 21 22 23 24 25 26 27

000
ASUS41 KPHI 242112
RWRPHI

REGIONAL WEATHER ROUNDUP
NATIONAL WEATHER SERVICE MOUNT HOLLY NJ
500 PM EDT SAT JUN 24 2017

NOTE:  "FAIR" INDICATES FEW OR NO CLOUDS BELOW 12,000 FEET WITH NO
SIGNIFICANT WEATHER AND/OR OBSTRUCTIONS TO VISIBILITY.

 * = STATION DOES NOT REPORT PRECIPITATION (E.G. RAIN, SNOW, ETC.)
        OR FOG.

NJZ015>026-242200-
SOUTHERN NEW JERSEY

CITY           SKY/WX    TMP DP  RH WIND       PRES   REMARKS
POMONA         MOSUNNY   87  60  40 W16G25    29.84R
MILLVILLE      MOSUNNY   85  63  47 W14       29.85R
WRIGHTSTOWN    MOSUNNY   84  60  43 W13G22    29.80R
MOUNT HOLLY    PTSUNNY   84  54  35 W12G17    29.83R
TRENTON        PTSUNNY   85  59  41 W12       29.82R

$$
NJZ001>014-242200-
NORTHERN NEW JERSEY

CITY           SKY/WX    TMP DP  RH WIND       PRES   REMARKS
SUSSEX         SUNNY     83  53  35 VRB6      29.80S
ANDOVER*         N/A     83  55  38 VRB7      29.82R
MORRISTOWN     PTSUNNY   82  54  36 NW6       29.80R
NEWARK         CLOUDY    85  51  31 NW13      29.79R
TETERBORO      CLOUDY    83  54  36 NW13      29.78R
CALDWELL       CLOUDY    86  54  33 W8G16     29.80R
SOMERVILLE     CLOUDY    84  62  47 VRB5      29.79R
ALLAIRE*       MOSUNNY   83  60  45 W10       29.82R
TOMS RIVER*    MOSUNNY   88  60  38 W13G21    29.83R

$$
PAZ043-044-047-054-055-060>062-066>071-242200-
EASTERN PENNSYLVANIA

CITY           SKY/WX    TMP DP  RH WIND       PRES   REMARKS
PHILADELPHIA   PTSUNNY   86  56  35 W17       29.84R
NORTH PHILA    PTSUNNY   86  60  41 W14G20    29.84R
BLUE BELL*     PTSUNNY   81  61  50 W10G17    29.85S
DOYLESTOWN     CLOUDY    83  58  42 W10G18    29.83R
QUAKERTOWN*    MOSUNNY   82  59  44 NW9       29.85S
PERKASIE*      FAIR      81  61  50 W9        29.85S
POTTSTOWN      PTSUNNY   80  58  46 VRB5      29.86R
LANCASTER      MOSUNNY   83  59  44 W15G24    29.85S
COATESVILLE    MOSUNNY   82  59  44 W9        29.89R
READING        MOSUNNY   83  61  47 W12G18    29.84R
ALLENTOWN      SUNNY     84  58  40 W13G20    29.82S
MOUNT POCONO   PTSUNNY   74  57  55 W7        29.88R
HAZLETON         N/A     81  54  39 CALM      29.91R
LEHIGHTON      FAIR      81  55  41 W6        29.84R
WILKES BARRE   MOSUNNY   81  56  42 SW10      29.82R

$$
DEZALL-MDZ008-012-015-019-020-242200-
DELAWARE AND EASTERN MARYLAND

CITY           SKY/WX    TMP DP  RH WIND       PRES   REMARKS
WILMINGTON     CLOUDY    86  61  42 NW8       29.85S
DOVER          MOSUNNY   86  66  50 SW13      29.84R
GEORGETOWN     SUNNY     88  59  37 W10G18    29.87S
EASTON         MOSUNNY   88  59  37 NW9       29.91S
ABERDEEN       MOSUNNY   85  61  44 W10       29.87R
PATUXENT       PTSUNNY   87  65  47 W7        29.88R
OCEAN CITY     MOSUNNY   88  65  46 W9        29.87S HX  90
WALLOPS ISLAND MOSUNNY   87  68  52 W9        29.88S HX  90
CAMBRIDGE      PTSUNNY   88  64  45 W8        29.88R
SALISBURY      MOSUNNY   86  65  49 SW12      29.87S

$$
PAZ001-021-NYZ056-072-MDZ011-DCZ001-242200-
OTHER NEARBY LOCATIONS

CITY           SKY/WX    TMP DP  RH WIND       PRES   REMARKS
HARRISBURG     MOSUNNY   84  59  42 W10       29.85S
STATE COLLEGE  MOSUNNY   79  55  44 W12G23    29.89S
WILLIAMSPORT   MOSUNNY   84  55  36 SW18G24   29.81R
BINGHAMTON     NOT AVBL
NEW YORK CITY  CLOUDY    82  53  36 VRB3      29.82R
BALTIMORE      MOSUNNY   86  58  38 W15       29.88R
WASHINGTON DC  PTSUNNY   88  59  37 W13G18    29.89R

$$




USA.gov is the U.S. government's official web portal to all federal, state and local government web resources and services.